User: anonymous   Login
Location: Famechon
(49.7599°N, 2.0615°E)
Time: 06:04:48
(UTC+00:00)
Language:

CZ-4 R/B DEB - Orbit

View from above orbital plane
View from above orbital plane
View from above satellite
View from above satellite

Ground track
Ground track

The orbit data is extracted from the following two-line orbital elements,

1 39055U 90081DP  24173.78073095  .00001798  00000-0  85198-3 0  9995
2 39055  98.6864 161.5664 0007396 335.6773 147.9329 14.20843437619235
Epoch (UTC): 21 June 2024 18:44:15
Eccentricity: 0.0007396
inclination: 98.6864°
perigee height: 817 km
apogee height: 828 km
right ascension of ascending node: 161.5664°
argument of perigee: 335.6773°
revolutions per day: 14.20843437
mean anomaly at epoch: 147.9329°
orbit number at epoch: 61923

The dashed part of the orbit path shows where the satellite is in the earth's shadow,  

DLR